Location: Harsberg
(49.3336°N, 7.5898°E)
Time: 02:05:54
(UTC+00:00)

Daily predictions for brighter satellites

Satellite Brightness Start Highest point End
(mag) Time Altitude Azimuth Time Altitude Azimuth Time Altitude Azimuth
ALOS 2 4.4 00:04:05 18° WSW 00:04:43 19° W 00:07:51 10° NW
Geosat 4.4 00:05:20 41° SW 00:06:16 45° WSW 00:11:07 10° NW
Cosmos 2360 Rocket 3.9 00:04:55 10° WNW 00:08:34 18° W 00:09:32 17° WSW
Nadezhda 1 Rocket 4.0 00:02:16 10° N 00:08:43 83° W 00:11:32 36° S
Cosmos 1862 Rocket 3.7 00:07:09 10° NNW 00:11:27 57° W 00:12:10 50° SW
Cosmos 1980 3.8 00:06:26 10° NNW 00:12:09 77° ENE 00:15:18 27° SE
Cosmos 1666 2.6 00:12:13 67° SSE 00:12:38 76° E 00:16:30 10° NNE
Cosmos 1378 3.8 00:10:21 10° N 00:13:56 47° ENE 00:14:41 40° ESE
MOZ.5/SAFIR/RUBIN 5/SL-8 4.4 00:12:39 28° SE 00:14:53 53° ENE 00:19:30 10° N
Resurs 1-4 Rocket 3.6 00:12:12 10° NE 00:16:42 27° E 00:19:08 19° SE
USA 229 DEB 3.9 00:09:45 10° NW 00:16:58 63° SW 00:21:08 29° SSE
USA 229 3.9 00:09:51 10° NW 00:17:04 63° SW 00:21:16 28° SSE
Intercosmos 25 Rocket 4.0 00:18:31 37° ESE 00:19:11 41° E 00:23:23 10° NNE
Lacrosse 5 3.3 00:21:12 21° SE 00:21:32 21° SE 00:25:19 10° ENE
Cosmos 1110 Rocket 4.4 00:17:11 10° NNW 00:22:17 47° WSW 00:23:33 39° SW
Cosmos 2084 Rocket 3.9 00:19:25 10° NW 00:23:33 59° NE 00:27:01 15° ESE
Cosmos 1703 Rocket 3.6 00:21:10 10° N 00:25:31 73° E 00:26:49 44° SSE
COSMOS 2487 4.1 00:25:44 22° W 00:26:29 24° WNW 00:29:20 10° N
ADEOS Rocket 4.1 00:21:47 10° SE 00:26:46 34° ENE 00:31:40 10° N
USA 267 4.2 00:21:36 10° ENE 00:27:49 47° N 00:34:00 10° WNW
Meteor 1-14 Rocket 4.2 00:26:17 38° SSW 00:28:26 70° WNW 00:34:03 10° N
Cosmos 2297 Rocket 2.6 00:31:41 34° SSE 00:33:47 53° ESE 00:39:18 10° NE
Cosmos 2237 Rocket 2.1 00:30:45 10° NNW 00:36:27 78° WSW 00:39:17 31° SSE
Cosmos 1536 3.5 00:35:32 37° SE 00:36:33 46° E 00:40:25 10° NNE
NOSS 3-1 (A) 4.3 00:30:01 10° NW 00:37:17 52° WSW 00:41:59 27° S
Meteor 1-13 Rocket 4.3 00:31:36 10° N 00:37:30 84° ENE 00:40:26 31° SSE
CZ-4 R/B 4.0 00:32:46 10° NNE 00:37:44 71° ESE 00:39:36 39° S
ARGOS Delta rocket 3.7 00:33:40 10° NNE 00:38:31 79° ESE 00:40:01 43° S
Cosmos 2181 Rocket 4.2 00:33:42 10° N 00:40:06 69° ENE 00:44:07 24° SSE
BREEZE-M DEB (TANK) 3.2 00:34:00 10° WSW 00:40:38 52° S 00:43:42 10° E
Cosmos 2227 Rocket 2.7 00:42:17 31° SSE 00:44:35 49° ESE 00:50:01 10° NE
EO 1 Del DPAF 3.5 00:41:36 10° N 00:45:16 54° WNW 00:45:57 46° WSW
Cosmos 2242 Rocket 3.6 00:44:36 10° NNW 00:48:59 67° W 00:50:12 45° SSW
TSX-5 3.7 00:50:00 54° SSW 00:50:49 89° ESE 00:55:19 10° NNE
Meteor 2-4 Rocket 4.5 00:46:20 10° NNW 00:51:52 41° W 00:54:04 30° SW
Cosmos 1544 3.2 00:52:00 51° SSE 00:52:43 67° E 00:56:21 10° NNE
NOSS 2-2 (D) 4.3 00:47:47 10° NW 00:52:58 87° SW 01:00:17 10° SE
ASTEX 1 3.3 00:51:42 36° S 00:53:43 87° W 00:58:40 10° N
CZ-2D R/B 2.6 00:49:03 10° NNE 00:54:19 52° E 00:57:06 27° SSE
CZ-4C R/B 3.9 00:50:07 10° NW 00:56:43 48° NE 01:04:30 10° ESE
ADEOS II 3.6 00:52:59 10° NE 00:57:32 29° E 01:01:02 15° SE
COSMOS 2428 4.0 00:55:17 10° NW 00:59:30 22° W 01:00:23 21° WSW
SL-16 R/B 2.6 00:54:28 10° NNW 01:00:08 64° ENE 01:05:45 10° SE
Meteor 1-23 Rocket 4.4 00:55:23 10° N 01:01:05 75° ENE 01:04:59 21° SSE
Cosmos 1269 Rocket 4.0 01:00:30 34° SW 01:02:51 76° WNW 01:08:10 10° NNE
Cosmos 2219 Rocket 3.9 01:02:25 10° WNW 01:05:34 15° W 01:06:12 15° WSW
Cosmos 2263 Rocket 4.4 01:08:37 10° SE 01:12:04 17° E 01:15:31 10° ENE
Cosmos 1869 Rocket 3.5 01:11:10 37° SSW 01:12:55 80° W 01:17:26 10° N
Cosmos 1743 2.6 01:19:32 39° S 01:20:53 86° E 01:24:44 10° N
Cosmos 1340 Rocket 3.9 01:20:53 26° WSW 01:22:05 32° WNW 01:25:40 10° N
Cosmos 1992 Rocket 3.9 01:17:06 10° NNW 01:22:20 69° WSW 01:25:38 23° S
COSMOS 2455 4.2 01:18:21 10° W 01:23:42 32° NW 01:29:06 10° NNE
Meteor 1-28 Rocket 4.5 01:21:44 11° SE 01:25:07 39° ENE 01:28:37 10° N
Helios 1A 4.0 01:27:31 28° WSW 01:28:25 30° W 01:32:11 10° NNW
Cosmos 2221 Rocket 3.7 01:23:58 10° N 01:28:32 78° E 01:31:41 20° SSE
Okean 3 3.9 01:24:37 10° NNW 01:28:43 44° W 01:30:10 32° SW
Okean 1-7 4.2 01:25:57 10° NNW 01:29:29 26° W 01:30:27 24° WSW
Cosmos 2219 3.3 01:28:52 26° SW 01:32:12 74° WNW 01:38:00 10° NNE
Timation 2 Rocket 3.9 01:31:17 26° SSW 01:34:53 84° ESE 01:41:02 10° NNE
Cosmos 1975 3.9 01:34:17 17° SSE 01:37:03 41° E 01:40:55 10° NNE
MINOTAUR 4 R/B 4.3 01:38:27 18° SSE 01:40:59 69° ENE 01:44:34 10° N
UNK 4.1 01:41:38 26° SSW 01:44:00 49° W 01:48:33 10° NNW
Cosmos 1707 4.1 01:41:27 10° N 01:45:03 37° ENE 01:48:37 10° SE
Cosmos 1238 Rocket 3.7 01:43:34 16° SSE 01:45:34 33° E 01:48:41 10° NNE
Cosmos 1674 Rocket 3.8 01:41:50 10° N 01:46:15 68° ENE 01:50:26 11° SSE
Helios 1B rocket 2.4 01:43:26 10° NNE 01:47:34 81° WNW 01:49:49 26° SSW
ATLAS 5 CENTAUR R/B 3.5 01:44:06 10° WNW 01:48:33 23° WSW 01:50:05 21° SW
IDEFIX/ARIANE 42P 3.5 01:43:36 10° NNE 01:48:34 43° E 01:53:13 11° S
SL-16 R/B 2.8 01:44:51 21° SSW 01:48:49 48° W 01:54:49 10° NNW
Cosmos 2184 Rocket 4.0 01:45:03 21° SSW 01:49:26 80° W 01:55:46 10° N
Meteor 1-11 Rocket 4.5 01:49:09 20° SW 01:52:25 38° WNW 01:57:35 10° N
Cosmos 2082 3.7 01:48:53 22° SSW 01:52:41 82° ESE 01:58:27 10° NNE
Meteor 1-29 3.2 01:51:20 10° NNE 01:54:38 61° ESE 01:56:32 23° S
Cosmos 2154 Rocket 4.0 01:51:28 16° S 01:56:29 83° E 02:02:44 10° N
Resurs 1-4 Rocket 2.5 01:51:38 10° N 01:56:46 50° WNW 02:00:13 20° SW
Cosmos 2251 Rocket 3.5 01:54:37 22° SSW 01:58:08 87° WNW 02:03:29 10° NNE
Cosmos 1842 3.2 01:55:03 10° NNW 01:58:54 67° W 02:01:27 20° S
Lacrosse 5 1.8 02:00:23 20° SW 02:03:57 87° SE 02:09:02 10° NE
Cosmos 1378 Rocket 3.5 02:03:12 10° N 02:07:37 85° WSW 02:11:52 11° S
Meteor 1-21 4.3 02:04:03 10° NNW 02:09:51 84° W 02:15:39 10° S
USA 267 4.2 02:03:56 10° E 02:10:12 51° NNE 02:16:29 10° WNW
MSX 4.5 02:06:12 10° NNE 02:11:49 53° E 02:17:23 10° S
ADEOS Rocket 3.3 02:08:20 17° SSW 02:12:17 41° W 02:17:28 10° NNW
Cosmos 2074 Rocket 4.3 02:09:07 18° SSW 02:13:43 53° WNW 02:19:48 10° N
NPP 4.2 02:10:32 10° N 02:15:40 45° WNW 02:19:39 16° SW
Cosmos 1908 Rocket 3.9 02:13:40 11° S 02:17:46 63° E 02:22:04 10° NNE
Cosmos 2297 Rocket 3.4 02:13:29 12° WSW 02:18:06 33° NW 02:23:14 10° NNE
Cosmos 1340 4.1 02:15:24 10° N 02:18:56 38° ENE 02:22:27 10° SE
Cosmos 1140 Rocket 3.9 02:14:51 13° S 02:19:31 60° ESE 02:24:42 10° NNE
Cosmos 2237 Rocket 3.9 02:16:55 10° WNW 02:19:34 14° W 02:21:04 12° WSW
AQUA 4.5 02:17:09 10° N 02:21:39 42° WNW 02:25:07 16° SW
Cosmos 1356 Rocket 3.4 02:20:09 14° S 02:23:38 81° E 02:27:39 10° NNE
Cosmos 1626 4.3 02:20:51 10° NNE 02:24:02 27° ENE 02:27:12 10° SE
Cosmos 1733 Rocket 3.6 02:22:03 17° SW 02:25:08 44° WNW 02:29:26 10° N
DELTA 2 DEB (DPAF) 4.3 02:22:42 10° S 02:27:02 54° W 02:31:25 10° NNW
Cosmos 1603 3.9 02:21:34 10° NNW 02:27:13 78° ENE 02:32:51 10° SSE
ARIANE 5 R/B 3.5 02:22:44 10° NNE 02:27:43 46° E 02:32:41 10° S
Cosmos 2227 Rocket 3.3 02:24:05 12° WSW 02:28:50 35° NW 02:34:01 10° NNE
Cosmos 1674 3.6 02:25:23 10° N 02:29:08 50° ENE 02:32:52 10° SSE
Cosmos 44 3.4 02:27:13 10° NW 02:32:33 83° SW 02:37:33 10° SSE
IKONOS-2 4.5 02:28:36 10° S 02:32:50 70° WSW 02:37:07 10° NNW
SL-8 Rocket 4.3 02:27:55 10° S 02:34:01 67° E 02:40:08 10° NNE
CZ-2D R/B 3.4 02:29:35 10° N 02:34:06 28° WNW 02:38:25 11° WSW
ADEOS II 2.6 02:32:23 10° N 02:37:25 47° WNW 02:41:58 12° SW
Okean 2 4.0 02:37:04 10° NNW 02:40:59 40° W 02:44:53 10° SSW
IRS-1D 3.8 02:37:50 10° N 02:42:40 53° WNW 02:47:18 11° SW
SWARM A 4.5 02:40:28 12° SSW 02:43:22 52° W 02:46:38 10° N
SL-16 R/B 3.3 02:39:20 10° NW 02:43:47 24° WSW 02:48:13 10° SSW
IRS-1C 4.3 02:39:33 10° NNE 02:44:56 77° ESE 02:50:16 10° S
CZ-4C R/B 3.0 02:38:35 10° NW 02:45:42 63° SW 02:53:57 10° SSE
Cosmos 2227 4.5 02:40:10 10° SSW 02:45:44 68° ESE 02:51:20 10° NNE
CZ-4C R/B 3.6 02:43:01 10° S 02:47:02 56° W 02:51:16 10° NNW
CZ-2D R/B 4.2 02:46:16 10° NNE 02:50:09 48° E 02:54:04 10° S
Iridium 4 Rocket 4.4 02:45:57 10° NNW 02:50:54 37° W 02:56:08 10° SSW
Cosmos 2263 Rocket 2.3 02:49:30 10° SSW 02:55:11 89° WNW 03:00:57 10° NNE
Cosmos 676 Rocket 4.5 02:52:40 10° S 02:57:56 63° ESE 03:03:13 10° NNE
USA 281 4.1 02:52:26 10° SE 02:58:48 56° NE 03:05:13 10° NNW
Cosmos 2341 Rocket 4.1 02:52:55 10° SSW 02:59:09 69° WNW 03:05:22 10° N
Cosmos 1782 Rocket 3.5 02:55:53 10° S 03:00:14 87° W 03:04:39 10° N
CZ-2C R/B 4.5 02:58:35 10° NNE 03:01:55 31° E 03:05:16 10° SSE
Cosmos 2218 Rocket 4.1 02:55:34 10° S 03:01:57 88° E 03:08:20 10° N
Cosmos 1727 Rocket 4.3 02:58:17 10° N 03:04:31 75° E 03:10:47 10° SSE
Cosmos 407 Rocket 3.8 03:00:43 10° SW 03:05:56 56° WNW 03:11:09 10° NNE
GEOS 3 Rocket 3.8 03:03:58 10° SSE 03:09:11 51° SW 03:14:23 10° NW
Cosmos 1805 3.5 03:07:36 10° S 03:11:29 74° E 03:15:24 10° NNE
Cosmos 1818 4.0 03:06:40 10° NW 03:12:11 71° NE 03:17:38 10° SE
ALOS 3.6 03:08:46 10° NNE 03:13:11 41° E 03:17:36 10° SSE
ATLAS CENTAUR R/B 1.6 03:09:53 10° SSW 03:13:37 62° SE 03:17:35 10° NE
KORONAS-FOTON 4.1 03:09:52 10° NNW 03:13:40 49° W 03:17:27 10° S
Cosmos 1975 4.5 03:10:34 10° WSW 03:13:41 21° WNW 03:16:49 10° NNW
USA 215 3.8 03:11:37 10° ENE 03:17:58 51° SE 03:24:18 10° SSW
